Location: Unspecified
(48.7971°N, 123.6320°W)
Time: 22:13:54
(UTC-07:00)

Okean 3 - Pass Details

Date: 04 July 2019
Orbit: 577 x 601 km, 82.5° (Epoch: 22 July)

Event Time Altitude Azimuth Distance (km) Brightness Sun altitude
Rises 04:01:23 0° 346° (NNW) 2,859 7.6 -9.7°
Reaches altitude 10° 04:03:38 10° 341° (NNW) 1,949 6.6 -9.5°
Maximum altitude 04:07:49 53° 266° (W) 741 3.7 -9.0°
Drops below altitude 10° 04:11:57 10° 189° (S) 1,920 5.6 -8.6°
Enters shadow 04:12:35 - 188° (S) 2,174 5.8 -8.5°
